Regional Weather Roundup
Issued by NWS Jackson, KY

Home | Current Version | Previous Version | Text Only | Print | Product List | Glossary Off
Versions: 1 2 3 4 5 6 7 8 9 10 11 12 13 14 15 16 17 18 19 20 21 22 23 24 25 26 27

000
ASUS43 KJKL 282310
RWRJKL

EAST KENTUCKY HOURLY WEATHER ROUNDUP
NATIONAL WEATHER SERVICE JACKSON KY
700 PM EDT SAT MAY 28 2016

NOTE: "FAIR" INDICATES FEW OR NO CLOUDS BELOW 12,000 FEET WITH
NO SIGNIFICANT WEATHER AND/OR OBSTRUCTIONS TO VISIBILITY.

* THESE REPORTS ARE NOT UNDER NWS QUALITY CONTROL AND MAY NOT
  REPORT WEATHER SUCH AS PRECIPITATION AND FOG.

KYZ079-080-083-085-087-088-110-112-115-119-120-290000
...EASTERN KENTUCKY...

CITY           SKY/WX    TMP DP  RH WIND       PRES   REMARKS
JACKSON        MOSUNNY   80  63  55 CALM      30.12S
LONDON         CLOUDY    83  60  45 SE5       30.10F
SOMERSET*      SUNNY     81  59  47 CALM      30.10S
MONTICELLO*    MOSUNNY   80  66  62 W8G17     30.11S
WILLIAMSBURG*  CLEAR     81  64  57 S3        30.11S
MIDDLESBORO*   SUNNY     82  62  50 S3        30.12R
HARLAN APT*      N/A     81  59  47 CALM      30.13S
HAZARD APT*    CLEAR     81  66  61 CALM      30.12S
BLACK MTN*       N/A     68  57  68 SW6         N/A
PIKE CO APT*     N/A     81  65  59 W3        30.12S
BIG SANDY APT* PTCLDY    82  66  60 CALM      30.11S
MOREHEAD APT*  PTCLDY    82  63  51 CALM      30.12R
ASHLAND*       MOSUNNY   84  66  54 SW3       30.05S
$$

KYZ035-036-041-042-044-050-067-078-099-290000
...CENTRAL KENTUCKY...

CITY           SKY/WX    TMP DP  RH WIND       PRES   REMARKS
MT STERLING*   SUNNY     81  64  57 CALM      30.11S
FLEMING/MASON* SUNNY    N/A N/A N/A S3        30.10R
DANVILLE*      CLOUDY    77  63  61 W3        30.11S
RICHMOND*      CLOUDY    82  64  54 SW5       30.09S
LEXINGTON      PTSUNNY   80  60  50 W8G18     30.09S
FRANKFORT      CLOUDY    78  62  57 SW6       30.08S
LOUISVILLE     PTSUNNY   76  65  68 S5        30.06S
LEBANON*         N/A     77  63  61 S7        30.10S
GLASGOW*       CLOUDY    74  65  73 SW3       30.08F
BOWLING GREEN  CLOUDY    78  66  66 S8        30.06F
$$

KYZ091>093-OHZ055-061-077-WVZ005-015-034-035-042-290000
...SOUTHERN OHIO/WEST VIRGINIA...

CITY           SKY/WX    TMP DP  RH WIND       PRES   REMARKS
COVINGTON      PTSUNNY   80  62  54 S8        30.07S
COLUMBUS       CLOUDY    76  69  79 CALM      30.07S
DAYTON         PTSUNNY   79  65  62 S9        30.08R
WILMINGTON     SUNNY     81  67  62 SW9       30.08S
HUNTINGTON       N/A     82  65  56 S3        30.08R
CHARLESTON       N/A     82  66  58 CALM      30.08F
PINEVILLE*     PTSUNNY   82  57  42 MISG      30.18S
BECKLEY          N/A     78  49  35 SE7       30.18S
BLUEFIELD        N/A     75  52  44 SE3       30.21S
LOGAN CO APT*    N/A     82  57  42 CALM      30.12S
$$

VAZ002-007-008-TNZ017-027-036-066-071-290000
...SOUTHWEST VIRGINIA/EAST TENNESSEE...

CITY           SKY/WX    TMP DP  RH WIND       PRES   REMARKS
WISE*            N/A     81  45  28 CALM      30.20F
JONESVILLE*      N/A     84  61  45 CALM      30.14S
ABINGDON*        N/A     81  56  42 CALM      30.16S
BRISTOL        PTSUNNY   81  58  45 N5        30.12S
SEVIERVILLE*   CLEAR     82  57  42 CALM      30.08F
KNOXVILLE      PTSUNNY   84  62  47 N6        30.08F
OAK RIDGE      SUNNY     83  60  45 CALM      30.10F
CROSSVILLE     MOSUNNY   78  61  55 CALM      30.14S
NASHVILLE      CLOUDY    82  61  48 S8        30.07F
$$

...KEY TO REMARKS...
VSB - VISIBILITY IN MILES
WCI - WIND CHILL INDEX
HX  - HEAT INDEX

$$




USA.gov is the U.S. government's official web portal to all federal, state and local government web resources and services.